User: anonymous   Login
Location: Unspecified
(0.0000°N, 0.0000°E)
Time: 19:00:33
(UTC+00:00)
Language:

EGRS 9 - Orbit

View from above orbital plane
View from above orbital plane
View from above satellite
View from above satellite

Ground track
Ground track

The orbit data is extracted from the following two-line orbital elements,

1  2861U 67065A   18015.80050753 -.00000013 +00000-0 -92958-2 0  9995
2  2861 090.1519 306.9320 0074120 138.2661 222.3860 08.36654649543914
Epoch (UTC): 15 January 2018 19:12:43
Eccentricity: 0.0074120
inclination: 90.1519°
perigee height: 3795 km
apogee height: 3947 km
right ascension of ascending node: 306.9320°
argument of perigee: 138.2661°
revolutions per day: 8.36654649
mean anomaly at epoch: 222.3860°
orbit number at epoch: 54391

The dashed part of the orbit path shows where the satellite is in the earth's shadow,  

DLR